FW8218 Weather Reports


time (UTC)temp
C
wind
direction
speed
KPH
gust
KPH
rain 1hr
cm
rain 24hr
cm
rain mn
cm
humidity
%
barometer
mb
20260504160208 13 329 9.7 20.9 0.00 0.00 0.00 84 1013.2
20260504150715 14 5 9.7 24.1 0.00 0.00 0.00 84 1013.0
20260504150217 14 308 9.7 22.5 0.00 0.00 0.00 83 1013.1
20260504141225 15 325 6.4 16.1 0.00 0.00 0.00 81 1013.1
20260504140706 16 336 6.4 17.7 0.00 0.00 0.00 80 1013.3
20260504140216 16 284 6.4 17.7 0.00 0.00 0.00 80 1013.2
20260504130707 16 15 6.4 14.5 0.00 0.00 0.00 78 1013.4
20260504130218 16 311 4.8 14.5 0.00 0.00 0.00 76 1013.4
20260504110714 15 319 4.8 14.5 0.00 0.00 0.00 80 1013.4
20260504100206 16 331 4.8 14.5 0.00 0.05 0.00 81 1013.5
20260504081719 15 301 3.2 12.9 0.00 0.18 0.00 84 1013.1
20260504081216 15 281 3.2 11.3 0.00 0.18 0.00 84 1013.2
20260504080719 15 298 3.2 11.3 0.00 0.18 0.00 85 1013.1
20260504080209 15 303 1.6 11.3 0.00 0.18 0.00 85 1013.0
20260504070215 14 282 0.0 3.2 0.00 0.18 0.00 92 1012.4
20260504060209 12 306 0.0 1.6 0.00 0.18 0.00 93 1012.1
20260504050711 13 138 0.0 4.8 0.00 0.18 0.00 93 1011.7
20260504050219 12 138 1.6 4.8 0.00 0.18 0.00 93 1011.7
20260504045711 12 138 1.6 4.8 0.00 0.18 0.00 93 1011.6
20260504045208 12 202 0.0 3.2 0.00 0.18 0.00 93 1011.6
20260504044716 12 202 0.0 3.2 0.00 0.18 0.00 93 1011.4
20260504044218 12 202 0.0 3.2 0.00 0.18 0.00 93 1011.4
20260504043713 12 202 0.0 4.8 0.00 0.18 0.00 93 1011.4
20260504042212 12 202 0.0 4.8 0.00 0.18 0.00 93 1011.2
20260504041212 12 201 0.0 3.2 0.00 0.18 0.00 93 1011.2
20260504040716 12 201 0.0 3.2 0.00 0.18 0.00 93 1011.3
20260504040214 12 201 0.0 3.2 0.00 0.18 0.00 93 1011.2
20260504035712 13 202 0.0 3.2 0.00 0.18 0.00 93 1011.2
20260504035218 13 201 0.0 3.2 0.00 0.18 0.00 93 1011.3
20260504034717 13 201 0.0 1.6 0.00 0.18 0.00 93 1011.2
20260504033705 12 201 0.0 1.6 0.00 0.18 0.00 93 1011.2
20260504032715 12 201 0.0 0.0 0.00 0.18 0.00 92 1011.2
20260504032216 12 201 0.0 0.0 0.00 0.18 0.00 92 1011.3
20260504031719 12 201 0.0 0.0 0.00 0.18 0.00 92 1011.3
20260504031208 12 202 0.0 0.0 0.00 0.18 0.00 92 1011.4
20260504030719 12 202 0.0 0.0 0.00 0.18 0.00 92 1011.5
20260504030206 12 202 0.0 0.0 0.00 0.18 0.00 92 1011.5
20260504025716 12 202 0.0 0.0 0.00 0.18 0.00 92 1011.5
20260504025210 12 202 0.0 3.2 0.00 0.18 0.00 92 1011.4
20260504024720 12 201 0.0 3.2 0.00 0.18 0.00 92 1011.4
20260504024212 12 202 0.0 4.8 0.00 0.20 0.00 92 1011.4
20260504023713 12 202 0.0 4.8 0.00 0.23 0.00 92 1011.3
20260504023217 12 202 0.0 4.8 0.00 0.25 0.00 92 1011.3
20260504022217 12 202 0.0 1.6 0.00 0.30 0.00 92 1011.2
20260504021713 12 202 0.0 0.0 0.00 0.33 0.00 92 1011.3
20260504021206 12 202 0.0 0.0 0.00 0.33 0.00 92 1011.3
20260504020707 12 202 0.0 0.0 0.00 0.33 0.00 92 1011.3
20260504020212 12 202 0.0 0.0 0.00 0.33 0.00 92 1011.3
20260504014719 12 202 0.0 0.0 0.00 0.33 0.00 92 1011.3
20260504014212 13 202 0.0 0.0 0.00 0.33 0.00 92 1011.3
20260504013709 13 202 0.0 0.0 0.00 0.33 0.00 92 1011.4
20260504013218 13 202 0.0 1.6 0.00 0.33 0.00 92 1011.4
20260504012708 13 202 0.0 1.6 0.00 0.33 0.00 91 1011.3
20260504011212 13 202 0.0 0.0 0.00 0.36 0.00 91 1011.4
20260504010716 13 202 0.0 1.6 0.00 0.36 0.00 91 1011.3
20260504005219 13 202 0.0 0.0 0.00 0.36 0.00 91 1011.2
20260504004720 13 201 0.0 0.0 0.00 0.36 0.00 91 1011.2
20260504004214 13 201 0.0 1.6 0.00 0.36 0.00 91 1011.2
20260504003717 13 202 0.0 3.2 0.00 0.36 0.00 91 1011.3
20260504002707 13 202 0.0 3.2 0.00 0.36 0.00 91 1011.3
20260504002214 13 201 0.0 1.6 0.00 0.36 0.00 91 1011.2
20260504001707 13 201 0.0 3.2 0.00 0.36 0.00 91 1011.2
20260504000206 13 201 0.0 3.2 0.00 0.36 0.00 91 1011.2
20260503235720 13 202 0.0 0.0 0.00 0.36 0.00 91 1011.3
20260503235211 13 202 0.0 0.0 0.00 0.36 0.00 91 1011.3
20260503234716 13 201 0.0 0.0 0.00 0.36 0.00 91 1011.3
20260503234212 13 201 0.0 3.2 0.00 0.36 0.00 91 1011.4
20260503233713 13 201 0.0 4.8 0.00 0.36 0.00 91 1011.4
20260503233205 13 201 0.0 4.8 0.00 0.36 0.00 91 1011.4
20260503232706 13 201 0.0 1.6 0.00 0.36 0.00 91 1011.4
20260503232215 13 201 0.0 1.6 0.00 0.38 0.00 91 1011.4
20260503231715 13 201 0.0 1.6 0.00 0.38 0.00 91 1011.4
20260503231217 13 201 0.0 1.6 0.00 0.38 0.00 91 1011.3
20260503230719 13 201 0.0 1.6 0.00 0.38 0.00 91 1011.4
20260503230216 13 201 0.0 1.6 0.00 0.38 0.00 91 1011.3
20260503225712 13 201 0.0 1.6 0.00 0.38 0.00 90 1011.3
20260503225216 13 201 0.0 1.6 0.00 0.38 0.00 90 1011.3
20260503224711 13 201 0.0 3.2 0.00 0.38 0.00 90 1011.4
20260503224209 14 201 0.0 3.2 0.00 0.38 0.00 90 1011.3
20260503223714 14 201 0.0 3.2 0.00 0.38 0.00 90 1011.3
20260503223208 14 201 0.0 6.4 0.00 0.38 0.00 90 1011.4
20260503222709 14 201 0.0 6.4 0.00 0.38 0.00 90 1011.4
20260503222211 14 201 0.0 6.4 0.00 0.38 0.00 90 1011.5
20260503220718 14 117 0.0 6.4 0.00 0.38 0.00 90 1011.3
20260503215707 14 164 1.6 4.8 0.00 0.38 0.38 90 1011.2
20260503215206 14 142 0.0 4.8 0.00 0.38 0.38 90 1011.2
20260503214712 14 142 0.0 4.8 0.00 0.38 0.38 89 1011.1
20260503214215 14 180 0.0 4.8 0.00 0.38 0.38 89 1011.1
20260503213711 14 180 0.0 4.8 0.00 0.38 0.38 89 1011.1
20260503213210 14 163 0.0 6.4 0.00 0.38 0.38 89 1011.1
20260503212705 14 184 0.0 6.4 0.00 0.38 0.38 89 1011.1
20260503212212 14 195 1.6 6.4 0.00 0.38 0.38 89 1011.1
20260503211711 14 177 1.6 6.4 0.00 0.41 0.38 89 1011.2
20260503211207 14 169 0.0 6.4 0.00 0.43 0.38 89 1011.1
20260503210714 14 153 0.0 6.4 0.00 0.43 0.38 89 1011.1
20260503210218 14 153 0.0 4.8 0.00 0.43 0.38 89 1011.1
20260503205709 14 132 0.0 6.4 0.00 0.46 0.38 88 1011.1
20260503205212 14 188 0.0 6.4 0.00 0.46 0.38 88 1011.1
20260503204220 15 182 0.0 8.0 0.00 0.51 0.38 88 1011.1
20260503203716 15 139 1.6 8.0 0.00 0.53 0.38 88 1011.1
20260503203207 15 196 1.6 8.0 0.00 0.58 0.38 88 1011.2
20260503202210 15 159 0.0 8.0 0.00 0.58 0.38 88 1011.3
20260503201717 15 182 0.0 4.8 0.00 0.58 0.38 88 1011.1
20260503201216 15 154 0.0 4.8 0.00 0.58 0.38 88 1011.0
20260503200709 15 154 0.0 4.8 0.00 0.58 0.38 88 1011.0
20260503200216 15 154 0.0 6.4 0.00 0.58 0.38 87 1010.9
20260503195715 15 154 0.0 6.4 0.00 0.58 0.38 87 1010.9
20260503195218 15 154 1.6 6.4 0.00 0.58 0.38 87 1010.8
20260503194708 15 144 0.0 4.8 0.00 0.58 0.38 87 1010.8
20260503194208 15 186 0.0 4.8 0.00 0.58 0.38 87 1010.7
20260503193708 15 186 0.0 4.8 0.00 0.58 0.38 87 1010.7
20260503193216 15 186 0.0 4.8 0.00 0.58 0.38 87 1010.6
20260503192716 15 189 0.0 4.8 0.00 0.58 0.38 87 1010.6
20260503191706 15 151 0.0 4.8 0.00 0.58 0.38 87 1010.4
20260503191208 15 151 0.0 8.0 0.00 0.58 0.38 87 1010.3
20260503190718 15 151 0.0 8.0 0.00 0.58 0.38 87 1010.2
20260503190206 15 171 1.6 8.0 0.00 0.58 0.38 87 1010.1
20260503185709 16 163 3.2 8.0 0.00 0.58 0.38 87 1010.1
20260503185211 16 138 3.2 11.3 0.00 0.58 0.38 87 1010.1
20260503184718 16 139 3.2 11.3 0.00 0.58 0.38 87 1010.1
20260503184206 16 186 3.2 8.0 0.00 0.58 0.38 87 1010.1
20260503183718 16 151 1.6 8.0 0.00 0.58 0.38 87 1010.1
20260503183212 16 161 1.6 8.0 0.00 0.58 0.38 87 1010.1
20260503182706 16 175 1.6 8.0 0.00 0.58 0.38 87 1010.0
20260503181220 16 196 0.0 8.0 0.00 0.58 0.38 87 1009.9
20260503180706 16 153 0.0 6.4 0.00 0.58 0.38 86 1009.8
20260503180220 16 154 1.6 6.4 0.00 0.58 0.38 86 1009.7
20260503175709 16 182 0.0 4.8 0.00 0.58 0.38 86 1009.7
20260503175211 16 121 0.0 4.8 0.00 0.58 0.38 86 1009.6
20260503174207 17 148 1.6 9.7 0.00 0.58 0.38 85 1009.5
20260503173214 17 217 1.6 8.0 0.00 0.58 0.38 85 1009.5
20260503172712 17 184 1.6 8.0 0.00 0.58 0.38 84 1009.6
20260503171713 17 209 1.6 8.0 0.00 0.58 0.38 84 1009.7
20260503171206 17 213 1.6 8.0 0.00 0.58 0.38 84 1009.6
20260503170715 17 157 1.6 8.0 0.00 0.58 0.38 84 1009.6